Torna al catalogo

CZ-4 DEB

AttivoPO
NORAD 26187·DEBRIS·🇨🇳 China

Lanciato Oct 14, 1999 da Taiyuan Satellite Launch Center

Loading…

Prossimi Passaggi (prossime 24 ore)

TLE

AggiornatoSource: Space-Track

Epoca: Sep 14, 2026, 11:58 UTC

1 26187U 99057BZ  26257.49905745  .00001598  00000-0  16604-3 0  9992
2 26187  98.5462 334.3255 0046077  34.7756 325.6457 14.90800859427718

Traccia CZ-4 DEB in tempo reale con AllMySat

Download on the App Store